Flag for Canada Weather past 2 weeks in Vancouver, British Columbia, Canada

Now
81 °F

Passing clouds.


Feels Like: 82 °F
Forecast: 69 / 83 °F
Wind: 12 mph from Southwest

Location: Vancouver International Air-Port

Current Time: Jun 29, 2015 at 4:58:26 PM

Latest Report: Jun 29, 2015 at 4:00 PM


Visibility: 30 mi

Pressure: 29.95 "Hg

Humidity: 54%

Dew point: 63 °F

Location of VancouverLocation

Historic Weather in Vancouver — Graph

°F

Vancouver temperature yesterday

Maximum temperature yesterday: 79 °F (at 4:00 PM)
Minimum temperature yesterday: 66 °F (at 1:00 AM)
Average temperature yesterday: 71 °F

Past Weeks' High & Low Weather Summary

 TemperatureHumidityPressure
High81 °F (Jun 29, 12:00 PM)94% (Jun 15, 12:00 AM)30.15 "Hg (Jun 15, 12:00 AM)
Low54 °F (Jun 15, 4:00 AM)40% (Jun 23, 9:00 PM)29.87 "Hg (Jun 27, 9:00 PM)
Average66 °F68%30.01 "Hg
* Reported Jun 14 3:00 PM — Jun 29 3:00 PM, Vancouver, Weather by CustomWeather, © 2015

Note: Actual official high and low records may vary slightly from our data, if they occured in-between our weather recording intervals... More about our weather records

Advertising

Vancouver weather history for previous 24 hours

 ConditionsComfort  
Time TempWeatherWind HumidityBarometerVisibility
3:00 PM
Mon, Jun 29
81 °FPassing clouds.10 mph58%29.96 "Hg20 mi
2:00 PM81 °FPassing clouds.14 mph58%29.96 "Hg20 mi
1:00 PM79 °FPassing clouds.12 mph65%29.96 "Hg20 mi
12:00 PM81 °FScattered clouds.7 mph51%29.96 "Hg20 mi
11:00 AM79 °FScattered clouds.6 mph51%29.96 "Hg30 mi
10:00 AM77 °FBroken clouds.6 mph57%29.96 "Hg30 mi
9:00 AM73 °FBroken clouds.6 mph65%29.96 "Hg30 mi
8:00 AM70 °FScattered clouds.9 mph69%29.95 "Hg30 mi
7:00 AM70 °FPartly sunny.10 mph73%29.94 "Hg30 mi
6:00 AM66 °FPartly cloudy.9 mph83%29.93 "Hg30 mi
5:00 AM68 °FPassing clouds.3 mph78%29.90 "Hg30 mi
4:00 AM66 °FPartly cloudy.6 mph83%29.90 "Hg20 mi
3:00 AM70 °FPartly cloudy.3 mph73%29.90 "Hg15 mi
2:00 AM70 °FMostly cloudy.5 mph78%29.91 "Hg15 mi
1:00 AM72 °FMostly cloudy.5 mph73%29.90 "Hg15 mi
12:00 AM75 °FMostly cloudy.5 mph61%29.88 "Hg20 mi
11:00 PM
Sun, Jun 28
77 °FPassing clouds.13 mph57%29.90 "Hg20 mi
10:56 PM77 °FPassing clouds.10 mph57%29.92 "Hg20 mi
10:00 PM73 °FMostly cloudy.14 mph69%29.93 "Hg20 mi
9:00 PM70 °FMostly cloudy.9 mph78%29.96 "Hg30 mi
8:00 PM72 °FMostly cloudy.6 mph65%29.94 "Hg30 mi
7:00 PM72 °FMostly cloudy.6 mph69%29.93 "Hg30 mi
6:46 PM72 °FMostly cloudy.3 mph69%29.93 "Hg30 mi
6:00 PM70 °FMostly cloudy.7 mph78%29.93 "Hg30 mi
5:48 PM70 °FMore clouds than sun.6 mph78%29.93 "Hg30 mi
5:00 PM73 °FCloudy.15 mph74%29.93 "Hg30 mi
4:00 PM79 °FMostly cloudy.5 mph51%29.93 "Hg30 mi
Weather by CustomWeather, © 2015

See weather overviewHow to use our weather pages